Simultaneous Nadir Overpasses (SNOs) Predictions

Prediction of SNOs between AQUA and NPP Satellite Orbit:

Table of predicted SNOs for the next 14.0 days since TLE Epoch: 3/9/2013
Index Date (AQUA) Time (AQUA) Lat,Lon (AQUA) SZA (AQUA ) Date (NPP) Time (NPP) Lat,Lon (NPP) SZA (NPP ) Distance(km) Time Diff (sec)
1 03/10/2013 14:54:45 76.69,-162.29 100.69 03/10/2013 14:54:02 76.69,-162.33 100.73 1.23 43
2 03/10/2013 15:43:53 -77.58, 8.76 80.41 03/10/2013 15:44:27 -77.59, 8.82 80.46 1.51 34
3 03/13/2013 07:11:05 77.09, -44.95 99.14 03/13/2013 07:10:50 77.09, -44.92 99.14 0.91 15
4 03/13/2013 08:00:20 -77.65, 124.94 81.57 03/13/2013 08:01:23 -77.64, 124.85 81.60 2.38 63
5 03/15/2013 22:38:20 -76.54, -98.70 81.26 03/15/2013 22:37:17 -76.53, -98.71 81.21 0.18 63
6 03/15/2013 23:27:29 77.32, 71.82 97.79 03/15/2013 23:27:43 77.32, 71.82 97.78 0.12 14
7 03/18/2013 14:54:40 -76.93, 18.59 82.81 03/18/2013 14:54:06 -76.94, 18.64 82.80 1.35 34
8 03/18/2013 15:43:49 77.70,-170.72 96.24 03/18/2013 15:44:32 77.70,-170.64 96.19 1.90 43
9 03/21/2013 07:11:03 -77.16, 135.33 84.16 03/21/2013 07:10:59 -77.16, 135.32 84.16 0.28 4




NCC Satellite Simultaneous Nadir Overpasses (SNOs) Prediction Service
